Carbondale, IL

12:53 PM CDT on July 22, 2017 (GMT -0500)
Southern Illinois

Weather History for KMDH - July, 2013

Change the Weather History Date:

Wednesday, July 17, 2013

  Actual Average Record
Temperature  
Mean Temperature 81 °F -  
Max Temperature 93 °F 89 °F 103 °F (1921)
Min Temperature 69 °F 65 °F 52 °F (1930)
Cooling Degree Days 16    
Growing Degree Days 31 (Base 50)    
Moisture  
Dew Point 71 °F    
Average Humidity 81    
Maximum Humidity 100    
Minimum Humidity 44    
Precipitation  
Precipitation 0.00 in - - ()
Sea Level Pressure  
Sea Level Pressure 30.28 in    
Wind  
Wind Speed 1 mph (North)    
Max Wind Speed 6 mph    
Max Gust Speed -    
Visibility 6 miles    
Events Fog    
Averages and records for this station are not official NWS values.
T = Trace of Precipitation, MM = Missing Value Source: NWS Daily Summary

Daily Weather History Graph

Daily Weather History Graph

Search for Another Location

Airport or City:

Trip Planner

Search our weather history database for the weather conditions in past years. The results will help you decide how hot, cold, wet, or windy it might be!

Date:

Astronomy

Jul. 17, 2013 Rise Set
Actual Time 5:48 AM CDT 8:17 PM CDT
Civil Twilight 5:18 AM CDT 8:47 PM CDT
Nautical Twilight 4:40 AM CDT 9:24 PM CDT
Astronomical Twilight 3:59 AM CDT 10:06 PM CDT
Moon 3:07 PM CDT (7/17) 12:53 AM CDT (7/17)
Length of Visible Light 15h 29m
Length of Day
14h 28m
Waxing Gibbous, 67% of the Moon is Illuminated
Jul 17
Waxing Gibbous
Jul 22
Full
Jul 29
Last Quarter
Aug 6
New
Aug 14
First Quarter

Hourly Weather History & Observations

Time (CDT) Temp. Heat Index Dew Point Humidity Pressure Visibility Wind Dir Wind Speed Gust Speed Precip Events Conditions
12:52 AM 73.0 °F - 71.1 °F 93% 30.28 in 8.0 mi NNW 3.5 mph - N/A   Clear
1:52 AM 72.0 °F - 70.0 °F 93% 30.27 in 8.0 mi Calm Calm - N/A   Clear
2:20 AM 71.6 °F - 69.8 °F 94% 30.28 in 1.5 mi Calm Calm - N/A   Clear
2:38 AM 73.4 °F - 71.6 °F 94% 30.29 in 0.8 mi Calm Calm - N/A   Clear
2:45 AM 71.6 °F - 71.6 °F 100% 30.29 in 2.5 mi Calm Calm - N/A   Clear
3:25 AM 73.4 °F - 71.6 °F 94% 30.29 in 1.2 mi Calm Calm - N/A   Clear
3:30 AM 73.4 °F - 71.6 °F 94% 30.29 in 3.0 mi Calm Calm - N/A   Clear
3:34 AM 71.6 °F - 71.6 °F 100% 30.30 in 1.5 mi Calm Calm - N/A   Clear
3:43 AM 71.6 °F - 69.8 °F 94% 30.29 in 0.5 mi Calm Calm - N/A Fog Fog
3:50 AM 71.6 °F - 69.8 °F 94% 30.30 in 2.0 mi Calm Calm - N/A   Clear
3:52 AM 71.1 °F - 70.0 °F 96% 30.28 in 2.5 mi Calm Calm - N/A   Clear
3:58 AM 71.6 °F - 69.8 °F 94% 30.30 in 1.2 mi Calm Calm - N/A   Partly Cloudy
4:08 AM 71.6 °F - 69.8 °F 94% 30.29 in 3.0 mi Calm Calm - N/A   Clear
4:52 AM 70.0 °F - 69.1 °F 97% 30.29 in 3.0 mi Calm Calm - N/A   Clear
4:57 AM 71.6 °F - 69.8 °F 94% 30.30 in 1.8 mi Calm Calm - N/A   Clear
5:21 AM 69.8 °F - 69.8 °F 100% 30.30 in 4.0 mi Calm Calm - N/A   Clear
5:30 AM 69.8 °F - 69.8 °F 100% 30.31 in 1.8 mi Calm Calm - N/A   Clear
5:42 AM 69.8 °F - 69.8 °F 100% 30.31 in 3.0 mi Calm Calm - N/A   Clear
5:52 AM 70.0 °F - 69.1 °F 97% 30.30 in 3.0 mi Calm Calm - N/A   Clear
6:16 AM 69.8 °F - 69.8 °F 100% 30.32 in 1.8 mi Calm Calm - N/A   Clear
6:27 AM 71.6 °F - 69.8 °F 94% 30.32 in 0.5 mi Calm Calm - N/A Fog Fog
6:36 AM 71.6 °F - 71.6 °F 100% 30.33 in 2.0 mi Calm Calm - N/A   Clear
6:43 AM 73.4 °F - 71.6 °F 94% 30.33 in 6.0 mi Calm Calm - N/A   Clear
6:52 AM 73.9 °F - 72.0 °F 93% 30.32 in 8.0 mi Calm Calm - N/A   Clear
7:52 AM 79.0 °F - 73.9 °F 84% 30.33 in 9.0 mi Calm Calm - N/A   Clear
8:52 AM 84.0 °F 90.2 °F 73.0 °F 69% 30.33 in 10.0 mi East 3.5 mph - N/A   Clear
9:52 AM 88.0 °F 93.8 °F 71.1 °F 57% 30.32 in 10.0 mi Variable 3.5 mph - N/A   Clear
10:52 AM 90.0 °F 96.4 °F 71.1 °F 54% 30.31 in 10.0 mi North 3.5 mph - N/A   Scattered Clouds
11:52 AM 91.0 °F 94.3 °F 66.9 °F 45% 30.31 in 10.0 mi WNW 4.6 mph - N/A   Scattered Clouds
12:52 PM 90.0 °F 94.5 °F 69.1 °F 50% 30.30 in 10.0 mi North 3.5 mph - N/A   Scattered Clouds
1:52 PM 91.9 °F 95.4 °F 66.9 °F 44% 30.28 in 10.0 mi NNW 3.5 mph - N/A   Clear
2:52 PM 91.0 °F 95.2 °F 68.0 °F 47% 30.26 in 10.0 mi Calm Calm - N/A   Mostly Cloudy
3:52 PM 93.0 °F 97.9 °F 69.1 °F 45% 30.23 in 10.0 mi Calm Calm - N/A   Clear
4:52 PM 93.0 °F 99.0 °F 70.0 °F 47% 30.22 in 10.0 mi NW 5.8 mph - N/A   Clear
5:52 PM 93.0 °F 97.4 °F 68.0 °F 44% 30.20 in 10.0 mi NNW 4.6 mph - N/A   Clear
6:52 PM 91.9 °F 95.9 °F 68.0 °F 45% 30.19 in 10.0 mi NNE 4.6 mph - N/A   Clear
7:52 PM 87.1 °F 98.8 °F 77.0 °F 72% 30.19 in 10.0 mi Calm Calm - N/A   Clear
8:52 PM 81.0 °F 85.8 °F 73.0 °F 77% 30.19 in 10.0 mi Calm Calm - N/A   Clear
9:52 PM 80.1 °F 84.2 °F 73.0 °F 79% 30.21 in 10.0 mi Calm Calm - N/A   Clear
10:52 PM 77.0 °F - 73.0 °F 88% 30.21 in 10.0 mi Calm Calm - N/A   Clear
11:52 PM 75.9 °F - 73.0 °F 91% 30.21 in 10.0 mi Calm Calm - N/A   Clear